Location: Newark
(48.8656°N, 2.3211°E)
Time: 13:30:48
(UTC+00:00)

Envisat - Pass Details

Date: 25 February 2019
Orbit: 764 x 766 km, 98.1° (Epoch: 19 October)

Event Time Altitude Azimuth Distance (km) Brightness Sun altitude
Rises 19:05:54 0° 188° (S) 3,218 6.3 -17.0°
Reaches altitude 10° 19:08:22 10° 196° (SSW) 2,297 5.6 -17.4°
Maximum altitude 19:13:02 37° 264° (W) 1,177 4.6 -18.1°
Drops below altitude 10° 19:17:45 10° 331° (NNW) 2,312 6.0 -18.9°
Sets 19:20:15 0° 340° (NNW) 3,243 6.6 -19.3°
